Nelson (NZNS)

Aerodrome — Elev 17
New Zealand
S041.17.53.999 E173.13.16.000
Loading chart...

Current Weather

NZNS 271030Z 06003KT 19KM -RA FEW070 BKN090 14/13 Q1011 RMK AUTO VATSIM USE ONLY

Published 47 minutes ago

Airport Activity

Loading chart...
Loading chart...

Standard ATC Positions

CallsignRadio Name / Freq / Voice Room / TypeFrequencyVoice RoomType
NZCH-T_CTR Christchurch Control
123.700
nzch-t_ctr
123.700nzch-t_ctr
NZNS_TWR Nelson Tower
127.400
nzns_twr
127.400nzns_twr
NZNS_ATIS Nelson ATIS
129.100
nzns_atis
129.100nzns_atis
UNICOM NZZC UNICOM
122.800
unicom_nzzc
122.800unicom_nzzc

Charts